This demonstration page uses our WeatherBlox Daily Observations layout. Learn more.

Left ArrowRight Arrow

34.74481, -87.66753

Hourly Observations for May 30, 2020

Temp ( °F °C ) Dew Point ( °F °C ) Humidity (%) Winds ( mph kmh ) Pressure ( in mb ) Visibility ( mi km ) Precip ( " mm )
12:53 am 00:53 Clear 69 20.6 64 17.8 84 84 Calm 30.06 1018 10 16 0.00 0.00
1:53 am 01:53 Clear 67 19.4 64 17.8 91 91 NW 5 7 30.06 1018 10 16 0.00 0.00
2:53 am 02:53 Clear 67 19.4 64 17.8 91 91 Calm 30.06 1018 10 16 0.00 0.00
3:53 am 03:53 Clear 66 18.9 63 17.2 90 90 N 3 6 30.06 1018 10 16 0.00 0.00
4:53 am 04:53 Clear 66 18.9 62 16.7 87 87 Calm 30.07 1018 10 16 0.00 0.00
5:53 am 05:53 Sunny 66 18.9 62 16.7 87 87 Calm 30.09 1019 10 16 0.00 0.00
6:53 am 06:53 Sunny 68 20 61 16.1 78 78 NNE 3 6 30.10 1019 10 16 0.00 0.00
7:53 am 07:53 Sunny 73 22.8 60 15.6 64 64 N 6 9 30.11 1020 10 16 0.00 0.00
8:53 am 08:53 Sunny 75 23.9 58 14.4 55 55 N 7 11 30.11 1020 10 16 0.00 0.00
9:53 am 09:53 Sunny 78 25.6 58 14.4 50 50 NNE 7 11 30.11 1020 10 16 0.00 0.00
10:53 am 10:53 Sunny 80 26.7 56 13.3 44 44 VRB 7 11 30.10 1019 10 16 0.00 0.00
11:53 am 11:53 Sunny 82 27.8 55 12.8 40 40 NNW 10 17 30.09 1019 10 16 0.00 0.00
12:53 pm 12:53 Sunny 82 27.8 53 11.7 37 37 ENE 8 13 30.09 1019 10 16 0.00 0.00
1:53 pm 13:53 Mostly Sunny 83 28.3 53 11.7 36 36 NNW 9 15 30.08 1019 10 16 0.00 0.00
2:53 pm 14:53 Sunny 83 28.3 55 12.8 38 38 NNW 7 11 30.06 1018 10 16 0.00 0.00
3:53 pm 15:53 Sunny 82 27.8 56 13.3 41 41 VRB 7 11 30.06 1018 10 16 0.00 0.00
4:53 pm 16:53 Sunny 82 27.8 54 12.2 38 38 NNW 8 13 30.05 1018 10 16 0.00 0.00
5:53 pm 17:53 Sunny 81 27.2 56 13.3 42 42 VRB 6 9 30.04 1017 10 16 0.00 0.00
6:53 pm 18:53 Sunny 80 26.7 54 12.2 41 41 VRB 6 9 30.05 1018 10 16 0.00 0.00
7:53 pm 19:53 Sunny 75 23.9 57 13.9 54 54 N 5 7 30.06 1018 10 16 0.00 0.00
8:53 pm 20:53 Clear 73 22.8 56 13.3 55 55 N 3 6 30.07 1018 10 16 0.00 0.00
9:53 pm 21:53 Clear 72 22.2 55 12.8 55 55 N 5 7 30.09 1019 10 16 0.00 0.00
10:53 pm 22:53 Clear 71 21.7 56 13.3 59 59 VRB 5 7 30.09 1019 10 16 0.00 0.00
11:53 pm 23:53 Clear 69 20.6 56 13.3 63 63 NNE 8 13 30.09 1019 10 16 0.00 0.00

Powered by AerisWeather